Time,TemperatureF,DewpointF,PressureIn,WindDirection,WindDirectionDegrees,WindSpeedMPH,WindSpeedGustMPH,Humidity,HourlyPrecipIn,Conditions,Clouds,dailyrainin,SolarRadiationWatts/m^2,SoftwareType,DateUTC
2013-03-07 00:32:00,53.0,22.0,29.99,SSE,161,7.0,12.0,30,-99.99,,,-99.99,0.000000,,2013-03-07 07:32:00,
2013-03-07 00:42:00,52.0,22.0,29.99,SSE,155,8.0,9.0,30,-99.99,,,-99.99,0.000000,,2013-03-07 07:42:00,
2013-03-07 00:53:00,52.0,22.0,29.99,SSE,155,8.0,9.0,30,-99.99,,,-99.99,0.000000,,2013-03-07 07:53:00,
2013-03-07 01:02:00,52.0,22.0,29.99,SSE,151,8.0,9.0,30,-99.99,,,-99.99,0.000000,,2013-03-07 08:02:00,
2013-03-07 01:12:00,52.0,22.0,29.99,SSE,162,8.0,10.0,31,-99.99,,,-99.99,0.000000,,2013-03-07 08:12:00,
2013-03-07 01:22:00,52.0,22.0,29.99,SSE,162,8.0,10.0,31,-99.99,,,-99.99,0.000000,,2013-03-07 08:22:00,
2013-03-07 01:33:00,52.0,22.0,29.99,SSE,160,7.0,8.0,30,-99.99,,,-99.99,0.000000,,2013-03-07 08:33:00,
2013-03-07 01:43:00,50.0,22.0,29.99,SSE,157,7.0,10.0,32,-99.99,,,-99.99,0.000000,,2013-03-07 08:43:00,
2013-03-07 01:54:00,50.0,22.0,29.99,SSE,157,7.0,10.0,32,-99.99,,,-99.99,0.000000,,2013-03-07 08:54:00,
2013-03-07 02:03:00,52.0,22.0,29.98,SSE,166,9.0,11.0,31,-99.99,,,-99.99,0.000000,,2013-03-07 09:03:00,
2013-03-07 02:13:00,48.0,21.0,29.98,SE,131,7.0,9.0,33,-99.99,,,-99.99,0.000000,,2013-03-07 09:13:00,
2013-03-07 02:23:00,48.0,21.0,29.98,SE,131,7.0,9.0,33,-99.99,,,-99.99,0.000000,,2013-03-07 09:23:00,
2013-03-07 02:32:00,47.0,21.0,29.98,SE,130,8.0,9.0,35,-99.99,,,-99.99,0.000000,,2013-03-07 09:32:00,
2013-03-07 02:42:00,48.0,22.0,29.97,ESE,123,10.0,11.0,34,-99.99,,,-99.99,0.000000,,2013-03-07 09:42:00,
2013-03-07 02:53:00,48.0,22.0,29.97,ESE,123,10.0,11.0,34,-99.99,,,-99.99,0.000000,,2013-03-07 09:53:00,
2013-03-07 03:03:00,48.0,22.0,29.97,SE,125,8.0,10.0,34,-99.99,,,-99.99,0.000000,,2013-03-07 10:03:00,
2013-03-07 03:13:00,47.0,21.0,29.97,NNW,331,4.0,7.0,35,-99.99,,,-99.99,0.000000,,2013-03-07 10:13:00,
2013-03-07 03:23:00,47.0,21.0,29.97,NNW,331,4.0,7.0,35,-99.99,,,-99.99,0.000000,,2013-03-07 10:23:00,
2013-03-07 03:33:00,45.0,21.0,29.97,North,10,3.0,5.0,38,-99.99,,,-99.99,0.000000,,2013-03-07 10:33:00,
2013-03-07 03:42:00,46.0,22.0,29.97,North,9,1.0,2.0,37,-99.99,,,-99.99,0.000000,,2013-03-07 10:42:00,
2013-03-07 03:53:00,46.0,22.0,29.97,North,9,1.0,2.0,37,-99.99,,,-99.99,0.000000,,2013-03-07 10:53:00,
2013-03-07 04:03:00,48.0,22.0,29.96,North,9,0.0,1.0,36,-99.99,,,-99.99,0.000000,,2013-03-07 11:03:00,
2013-03-07 04:12:00,49.0,22.0,29.96,North,3,1.0,3.0,34,-99.99,,,-99.99,0.000000,,2013-03-07 11:12:00,
2013-03-07 04:23:00,49.0,22.0,29.96,North,3,1.0,3.0,34,-99.99,,,-99.99,0.000000,,2013-03-07 11:23:00,
2013-03-07 04:33:00,47.0,22.0,29.96,East,89,3.0,4.0,35,-99.99,,,-99.99,0.000000,,2013-03-07 11:33:00,
2013-03-07 04:43:00,46.0,22.0,29.96,East,86,4.0,5.0,38,-99.99,,,-99.99,0.000000,,2013-03-07 11:43:00,
2013-03-07 04:54:00,46.0,22.0,29.96,East,86,4.0,5.0,38,-99.99,,,-99.99,0.000000,,2013-03-07 11:54:00,
2013-03-07 05:03:00,45.0,21.0,29.96,ESE,109,4.0,6.0,38,-99.99,,,-99.99,0.000000,,2013-03-07 12:03:00,
2013-03-07 05:12:00,44.0,21.0,29.97,ESE,105,4.0,6.0,39,-99.99,,,-99.99,0.000000,,2013-03-07 12:12:00,
2013-03-07 05:23:00,44.0,21.0,29.97,ESE,105,4.0,6.0,39,-99.99,,,-99.99,0.000000,,2013-03-07 12:23:00,
2013-03-07 05:33:00,44.0,21.0,29.97,ESE,103,5.0,7.0,39,-99.99,,,-99.99,0.000000,,2013-03-07 12:33:00,
2013-03-07 05:42:00,44.0,21.0,29.97,ESE,103,5.0,7.0,39,-99.99,,,-99.99,0.000000,,2013-03-07 12:42:00,
2013-03-07 05:53:00,44.0,21.0,29.97,ESE,103,5.0,7.0,39,-99.99,,,-99.99,0.000000,,2013-03-07 12:53:00,
2013-03-07 06:02:00,45.0,22.0,29.98,ESE,115,3.0,5.0,39,-99.99,,,-99.99,0.000000,,2013-03-07 13:02:00,
2013-03-07 06:12:00,45.0,21.0,29.99,East,99,3.0,5.0,38,-99.99,,,-99.99,0.000000,,2013-03-07 13:12:00,
2013-03-07 06:22:00,45.0,21.0,29.99,East,99,3.0,5.0,38,-99.99,,,-99.99,0.000000,,2013-03-07 13:22:00,
2013-03-07 06:32:00,44.0,22.0,29.99,ESE,119,4.0,5.0,40,-99.99,,,-99.99,0.000000,,2013-03-07 13:32:00,
2013-03-07 06:42:00,45.0,22.0,29.99,ESE,122,3.0,4.0,38,-99.99,,,-99.99,0.000000,,2013-03-07 13:42:00,
2013-03-07 06:53:00,45.0,22.0,29.99,ESE,122,3.0,4.0,38,-99.99,,,-99.99,0.000000,,2013-03-07 13:53:00,
2013-03-07 07:02:00,46.0,22.0,30.00,SSE,152,3.0,5.0,38,-99.99,,,-99.99,2.090000,,2013-03-07 14:02:00,
2013-03-07 07:12:00,46.0,21.0,30.01,SSE,149,1.0,3.0,37,-99.99,,,-99.99,10.460000,,2013-03-07 14:12:00,
2013-03-07 07:23:00,46.0,21.0,30.01,SSE,149,1.0,3.0,37,-99.99,,,-99.99,10.460000,,2013-03-07 14:23:00,
2013-03-07 07:33:00,41.0,20.0,30.01,SSE,158,2.0,3.0,41,-99.99,,,-99.99,65.550003,,2013-03-07 14:33:00,
2013-03-07 07:42:00,42.0,20.0,30.02,NNE,22,2.0,4.0,41,-99.99,,,-99.99,87.860001,,2013-03-07 14:42:00,
2013-03-07 07:54:00,42.0,20.0,30.02,NNE,22,2.0,4.0,41,-99.99,,,-99.99,87.860001,,2013-03-07 14:54:00,
2013-03-07 08:03:00,43.0,20.0,30.02,NNE,31,1.0,4.0,39,-99.99,,,-99.99,142.949997,,2013-03-07 15:03:00,
2013-03-07 08:12:00,48.0,21.0,30.03,ENE,68,1.0,2.0,34,-99.99,,,-99.99,270.570007,,2013-03-07 15:12:00,
2013-03-07 08:23:00,48.0,21.0,30.03,ENE,68,1.0,2.0,34,-99.99,,,-99.99,270.570007,,2013-03-07 15:23:00,
2013-03-07 08:32:00,51.0,22.0,30.04,NE,37,0.0,1.0,32,-99.99,,,-99.99,218.270004,,2013-03-07 15:32:00,
2013-03-07 08:42:00,52.0,23.0,30.04,NE,36,1.0,2.0,31,-99.99,,,-99.99,348.670013,,2013-03-07 15:42:00,
2013-03-07 08:53:00,52.0,23.0,30.04,NE,36,1.0,2.0,31,-99.99,,,-99.99,348.670013,,2013-03-07 15:53:00,
2013-03-07 09:02:00,55.0,23.0,30.05,NNE,32,0.0,2.0,29,-99.99,,,-99.99,389.809998,,2013-03-07 16:02:00,
2013-03-07 09:12:00,57.0,24.0,30.05,NNE,32,1.0,3.0,27,-99.99,,,-99.99,429.559998,,2013-03-07 16:12:00,
2013-03-07 09:23:00,57.0,24.0,30.05,NNE,32,1.0,3.0,27,-99.99,,,-99.99,429.559998,,2013-03-07 16:23:00,
2013-03-07 09:32:00,60.0,24.0,30.04,North,10,0.0,2.0,25,-99.99,,,-99.99,493.709991,,2013-03-07 16:32:00,
2013-03-07 09:42:00,62.0,25.0,30.04,SW,228,1.0,6.0,24,-99.99,,,-99.99,544.619995,,2013-03-07 16:42:00,
2013-03-07 09:53:00,62.0,25.0,30.04,SW,228,1.0,6.0,24,-99.99,,,-99.99,544.619995,,2013-03-07 16:53:00,
2013-03-07 10:02:00,62.0,25.0,30.04,South,171,1.0,3.0,23,-99.99,,,-99.99,592.729980,,2013-03-07 17:02:00,
2013-03-07 10:12:00,65.0,25.0,30.04,SSE,166,1.0,3.0,22,-99.99,,,-99.99,631.780029,,2013-03-07 17:12:00,
2013-03-07 10:22:00,65.0,25.0,30.04,SSE,166,1.0,3.0,22,-99.99,,,-99.99,631.780029,,2013-03-07 17:22:00,
2013-03-07 10:32:00,66.0,25.0,30.04,South,186,2.0,5.0,21,-99.99,,,-99.99,667.349976,,2013-03-07 17:32:00,
2013-03-07 10:43:00,68.0,25.0,30.03,SSW,204,1.0,5.0,20,-99.99,,,-99.99,702.210022,,2013-03-07 17:43:00,
2013-03-07 10:54:00,68.0,25.0,30.03,SSW,204,1.0,5.0,20,-99.99,,,-99.99,702.210022,,2013-03-07 17:54:00,
2013-03-07 11:03:00,70.0,25.0,30.03,South,172,2.0,7.0,18,-99.99,,,-99.99,755.210022,,2013-03-07 18:03:00,
2013-03-07 11:12:00,71.0,25.0,30.02,SE,131,3.0,7.0,17,-99.99,,,-99.99,783.799988,,2013-03-07 18:12:00,
2013-03-07 11:22:00,71.0,25.0,30.02,SE,131,3.0,7.0,17,-99.99,,,-99.99,783.799988,,2013-03-07 18:22:00,
2013-03-07 11:32:00,73.0,25.0,30.02,South,186,2.0,9.0,16,-99.99,,,-99.99,836.099976,,2013-03-07 18:32:00,
2013-03-07 11:42:00,73.0,24.0,30.01,SE,144,6.0,12.0,16,-99.99,,,-99.99,777.530029,,2013-03-07 18:42:00,
2013-03-07 11:53:00,73.0,24.0,30.01,SE,144,6.0,12.0,16,-99.99,,,-99.99,777.530029,,2013-03-07 18:53:00,
2013-03-07 12:03:00,74.0,24.0,30.00,SE,141,6.0,11.0,15,-99.99,,,-99.99,822.849976,,2013-03-07 19:03:00,
2013-03-07 12:12:00,75.0,23.0,30.00,NNE,15,5.0,11.0,14,-99.99,,,-99.99,665.950012,,2013-03-07 19:12:00,
2013-03-07 12:23:00,75.0,23.0,30.00,NNE,15,5.0,11.0,14,-99.99,,,-99.99,665.950012,,2013-03-07 19:23:00,
2013-03-07 12:34:00,76.0,21.0,29.99,SW,215,10.0,21.0,12,-99.99,,,-99.99,711.979980,,2013-03-07 19:34:00,
2013-03-07 12:43:00,75.0,19.0,29.98,SSW,204,16.0,27.0,11,-99.99,,,-99.99,645.030029,,2013-03-07 19:43:00,
2013-03-07 12:53:00,75.0,20.0,29.98,SSW,211,15.0,22.0,12,-99.99,,,-99.99,808.210022,,2013-03-07 19:53:00,
2013-03-07 13:02:00,75.0,20.0,29.98,SSW,211,15.0,22.0,12,-99.99,,,-99.99,808.210022,,2013-03-07 20:02:00,
2013-03-07 13:13:00,75.0,20.0,29.97,SSW,210,13.0,25.0,12,-99.99,,,-99.99,843.770020,,2013-03-07 20:13:00,
2013-03-07 13:22:00,75.0,20.0,29.97,SSW,210,13.0,25.0,12,-99.99,,,-99.99,843.770020,,2013-03-07 20:22:00,
2013-03-07 13:33:00,75.0,19.0,29.96,SW,226,13.0,22.0,12,-99.99,,,-99.99,817.270020,,2013-03-07 20:33:00,
2013-03-07 13:42:00,75.0,19.0,29.95,SW,223,13.0,23.0,12,-99.99,,,-99.99,730.809998,,2013-03-07 20:42:00,
2013-03-07 13:54:00,75.0,19.0,29.95,SW,223,13.0,23.0,12,-99.99,,,-99.99,730.809998,,2013-03-07 20:54:00,
2013-03-07 14:02:00,76.0,19.0,29.94,SW,214,14.0,26.0,11,-99.99,,,-99.99,768.460022,,2013-03-07 21:02:00,
2013-03-07 14:12:00,75.0,19.0,29.93,SW,214,15.0,26.0,11,-99.99,,,-99.99,491.619995,,2013-03-07 21:12:00,
2013-03-07 14:32:00,75.0,19.0,29.93,SW,214,15.0,26.0,11,-99.99,,,-99.99,491.619995,,2013-03-07 21:32:00,
2013-03-07 14:42:00,76.0,16.0,29.92,SW,223,15.0,26.0,10,-99.99,,,-99.99,589.250000,,2013-03-07 21:42:00,
2013-03-07 14:53:00,76.0,16.0,29.92,SW,223,15.0,26.0,10,-99.99,,,-99.99,589.250000,,2013-03-07 21:53:00,
2013-03-07 15:02:00,76.0,16.0,29.92,SSW,212,13.0,21.0,10,-99.99,,,-99.99,442.109985,,2013-03-07 22:02:00,
2013-03-07 15:12:00,76.0,17.0,29.92,SSW,205,12.0,22.0,10,-99.99,,,-99.99,409.329987,,2013-03-07 22:12:00,
2013-03-07 15:22:00,76.0,17.0,29.92,SSW,205,12.0,22.0,10,-99.99,,,-99.99,409.329987,,2013-03-07 22:22:00,
2013-03-07 15:32:00,76.0,16.0,29.92,SW,217,16.0,25.0,10,-99.99,,,-99.99,391.200012,,2013-03-07 22:32:00,
2013-03-07 15:42:00,76.0,17.0,29.92,SSW,207,16.0,28.0,10,-99.99,,,-99.99,324.959991,,2013-03-07 22:42:00,
2013-03-07 15:54:00,75.0,18.0,29.92,SSW,213,15.0,28.0,11,-99.99,,,-99.99,254.529999,,2013-03-07 22:54:00,
2013-03-07 16:02:00,75.0,18.0,29.92,SSW,213,15.0,28.0,11,-99.99,,,-99.99,254.529999,,2013-03-07 23:02:00,
2013-03-07 16:13:00,74.0,18.0,29.92,SW,220,18.0,28.0,11,-99.99,,,-99.99,226.630005,,2013-03-07 23:13:00,
2013-03-07 16:22:00,74.0,18.0,29.92,SW,220,18.0,28.0,11,-99.99,,,-99.99,226.630005,,2013-03-07 23:22:00,
2013-03-07 16:33:00,74.0,18.0,29.92,SW,218,14.0,23.0,11,-99.99,,,-99.99,219.660004,,2013-03-07 23:33:00,
2013-03-07 16:43:00,74.0,18.0,29.91,SW,224,17.0,28.0,12,-99.99,,,-99.99,167.360001,,2013-03-07 23:43:00,
2013-03-07 16:54:00,74.0,18.0,29.91,SW,224,17.0,28.0,12,-99.99,,,-99.99,167.360001,,2013-03-07 23:54:00,
2013-03-07 17:00:00,73.0,18.0,29.92,SW,224,11.0,19.0,12,-99.99,,,-99.99,126.910004,,2013-03-08 00:00:00,
2013-03-07 17:03:00,74.0,18.0,29.91,SW,224,17.0,28.0,12,-99.99,,,-99.99,167.360001,,2013-03-08 00:03:00,
2013-03-07 17:13:00,73.0,18.0,29.91,SW,222,12.0,18.0,12,-99.99,,,-99.99,112.269997,,2013-03-08 00:13:00,
2013-03-07 17:23:00,73.0,18.0,29.91,SW,222,12.0,18.0,12,-99.99,,,-99.99,112.269997,,2013-03-08 00:23:00,
2013-03-07 17:34:00,73.0,18.0,29.92,SW,224,11.0,19.0,12,-99.99,,,-99.99,126.910004,,2013-03-08 00:34:00,
2013-03-07 17:43:00,73.0,18.0,29.92,SW,224,11.0,19.0,12,-99.99,,,-99.99,126.910004,,2013-03-08 00:43:00,
2013-03-07 17:54:00,73.0,18.0,29.92,SW,224,11.0,19.0,12,-99.99,,,-99.99,126.910004,,2013-03-08 00:54:00,
2013-03-07 18:33:00,72.0,18.0,29.92,WSW,239,8.0,15.0,12,-99.99,,,-99.99,24.410000,,2013-03-08 01:33:00,
2013-03-07 18:42:00,70.0,17.0,29.92,SW,223,8.0,12.0,13,-99.99,,,-99.99,4.880000,,2013-03-08 01:42:00,
2013-03-07 18:52:00,70.0,17.0,29.92,SW,223,8.0,12.0,13,-99.99,,,-99.99,4.880000,,2013-03-08 01:52:00,
2013-03-07 19:01:00,69.0,17.0,29.92,SW,223,7.0,10.0,13,-99.99,,,-99.99,0.700000,,2013-03-08 02:01:00,
2013-03-07 19:11:00,67.0,17.0,29.93,SW,232,6.0,9.0,14,-99.99,,,-99.99,0.000000,,2013-03-08 02:11:00,
2013-03-07 19:22:00,67.0,17.0,29.93,SW,232,6.0,9.0,14,-99.99,,,-99.99,0.000000,,2013-03-08 02:22:00,
2013-03-07 19:32:00,66.0,17.0,29.93,SW,231,6.0,9.0,14,-99.99,,,-99.99,0.000000,,2013-03-08 02:32:00,
2013-03-07 19:42:00,66.0,17.0,29.93,SW,227,5.0,8.0,15,-99.99,,,-99.99,0.000000,,2013-03-08 02:42:00,
2013-03-07 19:53:00,66.0,17.0,29.93,SW,227,5.0,8.0,15,-99.99,,,-99.99,0.000000,,2013-03-08 02:53:00,
2013-03-07 20:02:00,65.0,18.0,29.94,SW,227,4.0,5.0,15,-99.99,,,-99.99,0.000000,,2013-03-08 03:02:00,
2013-03-07 20:12:00,65.0,18.0,29.94,SW,226,4.0,5.0,16,-99.99,,,-99.99,0.000000,,2013-03-08 03:12:00,
2013-03-07 20:22:00,65.0,18.0,29.94,SW,226,4.0,5.0,16,-99.99,,,-99.99,0.000000,,2013-03-08 03:22:00,
2013-03-07 20:32:00,64.0,18.0,29.94,SW,222,4.0,6.0,16,-99.99,,,-99.99,0.000000,,2013-03-08 03:32:00,
2013-03-07 20:42:00,64.0,18.0,29.94,SW,235,5.0,8.0,17,-99.99,,,-99.99,0.000000,,2013-03-08 03:42:00,
2013-03-07 20:53:00,64.0,18.0,29.94,SW,235,5.0,8.0,17,-99.99,,,-99.99,0.000000,,2013-03-08 03:53:00,
2013-03-07 21:01:00,63.0,18.0,29.94,SW,232,4.0,7.0,17,-99.99,,,-99.99,0.000000,,2013-03-08 04:01:00,
2013-03-07 21:11:00,63.0,19.0,29.94,SW,225,6.0,10.0,18,-99.99,,,-99.99,0.000000,,2013-03-08 04:11:00,
2013-03-07 21:22:00,63.0,19.0,29.94,SW,225,6.0,10.0,18,-99.99,,,-99.99,0.000000,,2013-03-08 04:22:00,
2013-03-07 21:32:00,65.0,21.0,29.94,WSW,241,8.0,13.0,18,-99.99,,,-99.99,0.000000,,2013-03-08 04:32:00,
2013-03-07 21:42:00,66.0,22.0,29.94,WSW,249,8.0,14.0,18,-99.99,,,-99.99,0.000000,,2013-03-08 04:42:00,
2013-03-07 21:52:00,66.0,22.0,29.94,WSW,249,8.0,14.0,18,-99.99,,,-99.99,0.000000,,2013-03-08 04:52:00,
2013-03-07 22:02:00,66.0,22.0,29.95,WSW,245,6.0,11.0,18,-99.99,,,-99.99,0.000000,,2013-03-08 05:02:00,
2013-03-07 22:12:00,66.0,22.0,29.95,SW,221,5.0,8.0,18,-99.99,,,-99.99,0.000000,,2013-03-08 05:12:00,
2013-03-07 22:22:00,66.0,22.0,29.95,SW,221,5.0,8.0,18,-99.99,,,-99.99,0.000000,,2013-03-08 05:22:00,
2013-03-07 22:32:00,66.0,22.0,29.95,SW,221,5.0,8.0,18,-99.99,,,-99.99,0.000000,,2013-03-08 05:32:00,
2013-03-07 22:42:00,66.0,22.0,29.96,SSW,195,4.0,6.0,18,-99.99,,,-99.99,0.000000,,2013-03-08 05:42:00,
2013-03-07 22:52:00,66.0,22.0,29.96,SSW,195,4.0,6.0,18,-99.99,,,-99.99,0.000000,,2013-03-08 05:52:00,
2013-03-07 23:01:00,66.0,22.0,29.97,South,187,5.0,9.0,18,-99.99,,,-99.99,0.000000,,2013-03-08 06:01:00,
2013-03-07 23:11:00,66.0,21.0,29.97,SSW,205,6.0,11.0,18,-99.99,,,-99.99,0.000000,,2013-03-08 06:11:00,
2013-03-07 23:22:00,66.0,21.0,29.97,SSW,205,6.0,11.0,18,-99.99,,,-99.99,0.000000,,2013-03-08 06:22:00,
2013-03-07 23:32:00,66.0,21.0,29.97,SW,225,5.0,10.0,17,-99.99,,,-99.99,0.000000,,2013-03-08 06:32:00,
2013-03-07 23:42:00,65.0,21.0,29.97,WSW,237,4.0,6.0,18,-99.99,,,-99.99,0.000000,,2013-03-08 06:42:00,
2013-03-07 23:52:00,65.0,21.0,29.97,WSW,237,4.0,6.0,18,-99.99,,,-99.99,0.000000,,2013-03-08 06:52:00,